Location: Bushrod
(6.3500°N, 10.7833°W)
Time: 04:16:29
(UTC+00:00)

SWIFT - Pass Details

Date: 17 September 2019
Orbit: 545 x 561 km, 20.6° (Epoch: 23 October)

Event Time Altitude Azimuth Distance (km) Brightness Sun altitude
Rises 19:07:48 0° 306° (NW) 2,702 6.9 -7.3°
Reaches altitude 10° 19:10:24 10° 319° (NW) 1,806 5.6 -7.9°
Maximum altitude 19:13:52 25° 15° (NNE) 1,127 3.8 -8.8°
Enters shadow 19:17:13 11° 70° (ENE) 1,765 4.3 -9.6°
